GFSNE_con_3kmhel_183.txt.gz
Helicity
59 68 65 70 73 72 63 76 30 -5 -36 -5 -9 12 -6 -19 1 10 -20 -38 39 63 126 173 180 136 149 149 176 135 166 196 145 217 158 107 186 167
67 73 76 74 83 85 83 68 52 38 41 21 15 13 -15 -6 -10 2 30 11 -2 21 77 133 177 196 142 137 144 157 128 142 123 163 238 160 109 194
63 67 69 74 76 64 63 57 52 40 49 40 23 -15 -14 -40 -30 -22 24 9 -20 46 81 93 150 203 187 133 123 151 152 151 149 161 227 294 48 82
53 57 66 73 67 66 58 50 59 76 47 27 6 -20 -47 -51 -51 -47 -69 0 5 2 75 140 150 184 201 168 123 133 174 151 136 118 98 134 164 134
48 55 61 57 59 62 61 71 80 75 51 46 25 -16 -24 -65 -56 -51 -57 -65 -4 7 64 112 145 160 203 172 128 125 158 150 116 118 64 115 199 233
56 61 62 61 59 67 66 73 75 70 58 55 43 21 -14 -45 -53 -51 -94 -52 -50 -4 20 48 111 164 220 230 163 107 108 146 105 100 74 46 48 87
56 63 67 57 99 95 93 90 80 77 78 67 61 36 -2 -7 -6 -29 -41 -67 -37 -39 -49 -19 95 112 171 224 155 117 110 111 150 106 127 63 30 37
63 70 68 90 97 99 97 102 118 111 99 89 83 61 65 41 23 2 -15 -77 -77 -91 -24 61 51 108 194 227 231 175 157 165 194 157 115 74 -29 10
67 70 79 89 102 124 124 119 97 96 110 124 115 112 74 67 48 17 5 -11 -10 -1 -36 16 64 151 180 183 246 208 208 199 190 188 80 77 63 69
69 79 87 85 115 96 119 90 99 119 111 121 117 108 92 70 61 52 20 -8 -10 -14 -40 4 45 143 118 155 320 296 243 194 151 220 96 47 80 60
90 87 94 104 80 101 115 99 112 127 97 82 68 65 62 49 56 65 25 -8 -49 -38 17 -61 -39 59 136 164 222 203 214 186 159 123 115 46 64 69
80 85 95 103 103 114 122 120 119 114 89 80 86 84 79 85 48 72 45 -7 -30 -69 15 -60 -4 -40 -125 2 96 175 143 224 186 166 149 112 74 85
86 95 111 93 109 117 110 121 125 137 106 107 103 102 100 90 83 76 57 13 -24 -20 35 -35 4 75 30 39 69 187 200 234 108 122 164 139 117 96
105 109 102 106 113 116 123 105 136 140 130 123 116 109 100 95 87 76 59 33 -2 -23 48 38 -4 42 94 70 36 137 198 219 169 133 101 118 77 56
123 124 123 121 126 129 122 128 155 150 138 130 117 114 112 103 87 61 49 27 5 19 15 32 9 34 44 75 107 170 189 181 172 153 149 144 65 12
107 99 100 115 121 112 120 129 137 147 135 128 115 115 109 88 76 34 10 13 18 91 100 58 69 52 56 69 68 185 204 112 136 146 176 182 101 124
105 100 99 102 108 109 111 130 125 144 128 121 95 101 90 76 60 22 3 11 11 62 162 202 193 118 75 62 97 110 156 125 122 163 161 193 126 148
123 110 104 106 110 97 100 121 119 134 114 106 89 96 81 62 21 30 1 -2 28 91 134 180 210 218 146 111 -26 74 66 97 100 118 180 147 60 83
125 112 112 111 115 107 109 125 128 122 92 97 98 90 75 39 -19 6 22 24 69 97 169 177 178 116 162 221 281 165 31 111 176 105 98 53 -4 41
124 123 123 120 122 117 116 130 129 113 98 93 98 81 67 -19 -25 4 33 51 82 134 208 217 186 173 170 236 285 397 242 96 86 127 79 89 115 -52
117 119 128 126 127 128 129 129 133 112 109 102 88 70 40 -40 -16 4 44 84 90 90 176 256 301 321 235 178 125 142 108 44 159 134 101 59 61 50
115 122 126 128 129 130 130 134 111 101 93 101 72 59 5 -41 -24 12 40 69 109 127 173 241 267 250 226 182 224 194 141 87 220 192 213 155 32 -29
125 141 139 134 127 127 124 115 105 100 91 97 58 33 -12 -19 -15 5 38 60 86 129 140 233 276 249 269 244 228 198 160 99 273 223 199 172 38 -76

GFSNE_con_3kmhel_186.txt.gz
Helicity
85 78 81 81 72 65 60 65 50 38 35 28 -4 31 1 -17 3 -14 17 -15 37 39 69 125 162 138 80 78 125 134 124 115 110 144 265 257 159 113
84 98 87 74 73 75 71 69 67 68 109 77 61 28 5 0 -38 -15 -11 12 18 39 52 90 134 166 144 86 67 124 105 116 94 84 113 179 152 212
104 86 82 76 73 70 65 63 63 66 77 88 74 47 2 -23 -2 -21 -44 -60 15 30 53 60 121 166 165 134 72 68 123 108 103 95 101 78 138 162
96 77 82 74 71 64 55 58 58 60 74 62 41 15 5 14 -10 -56 -68 -32 -40 -15 19 78 91 129 165 167 125 87 115 130 133 119 101 87 49 140
83 75 76 65 59 52 59 63 58 56 63 63 58 41 21 -9 -28 -41 -45 -76 -56 -20 6 33 59 80 146 179 197 125 65 77 97 115 76 48 66 49
82 76 65 54 38 56 58 51 47 56 64 80 62 46 15 -21 0 -21 -46 -67 -52 -52 0 -11 24 80 170 186 188 154 84 76 76 114 88 71 65 46
83 80 74 48 80 72 65 59 55 97 76 74 70 55 16 25 14 0 -15 -44 -64 -59 -47 -70 27 91 108 164 174 193 131 110 79 111 151 100 88 62
86 77 70 78 77 73 72 79 118 101 93 87 80 66 73 69 51 40 16 -37 -82 -87 -17 58 18 60 104 123 186 242 223 183 141 89 141 131 99 81
80 71 74 77 77 77 89 100 99 104 101 110 99 106 100 90 81 67 46 24 6 36 -7 -1 -6 55 80 83 205 262 292 258 202 117 112 139 128 110
71 62 63 65 85 80 89 83 93 110 98 112 117 117 112 95 90 98 71 62 59 51 22 -33 -22 16 -6 88 264 341 319 261 235 155 113 126 116 101
90 78 79 82 79 95 108 96 98 112 98 90 80 75 82 75 80 116 96 60 25 28 46 -49 -88 -30 -2 106 141 192 245 296 303 232 106 151 138 96
106 99 99 93 86 92 110 110 102 108 104 75 97 104 99 95 75 95 109 92 79 33 64 -52 -19 -66 -198 -10 40 191 213 282 302 308 209 179 158 26
97 99 93 81 98 91 96 103 86 147 111 106 110 117 115 108 105 105 106 107 103 130 93 -28 -12 17 -41 42 125 238 297 340 218 220 252 199 151 80
114 91 79 103 105 94 95 72 100 140 136 117 122 129 132 113 109 108 103 105 111 115 26 0 -21 -16 -6 80 190 221 284 322 254 251 217 165 143 77
110 109 121 116 113 93 77 81 124 127 137 128 128 140 131 119 103 95 97 81 77 85 39 -8 -28 -27 -23 56 197 257 349 344 314 226 227 146 101 37
117 109 93 90 78 60 68 78 99 102 127 127 133 140 112 111 99 87 90 76 48 89 54 -5 24 -11 3 45 58 327 281 244 307 238 212 158 109 61
89 94 92 89 82 66 66 77 85 92 116 123 128 120 111 91 89 84 88 66 23 32 87 124 107 56 49 9 152 174 219 215 227 265 191 144 112 68
117 96 86 84 80 60 62 72 84 87 109 116 114 104 107 85 79 89 78 36 3 49 62 100 112 138 93 40 -103 23 120 137 166 144 129 73 77 74
103 91 90 88 82 67 68 83 92 99 120 114 107 104 103 85 72 78 57 -9 30 47 88 95 94 39 103 213 220 44 28 166 185 182 136 74 39 116
106 107 104 95 93 86 95 101 108 112 119 99 103 101 97 87 73 71 13 -11 30 81 120 126 105 82 89 209 331 486 202 157 177 193 128 117 107 135
112 108 109 110 107 115 117 119 119 123 103 102 94 101 102 89 83 60 -12 12 32 37 105 172 210 225 174 121 128 244 272 219 116 125 110 113 168 118
121 123 121 122 128 127 126 120 119 104 96 96 90 106 107 98 81 7 -16 1 45 63 115 169 198 178 170 113 192 241 225 184 124 47 111 142 153 74
140 143 142 139 135 128 123 121 107 107 101 89 105 102 105 93 60 -14 -11 14 21 68 85 149 191 175 196 185 212 246 205 152 105 75 89 119 166 154

GFSNE_con_3kmhel_192.txt.gz
Helicity
141 132 124 112 112 109 105 109 128 130 114 84 82 77 67 61 67 60 53 75 54 63 88 97 108 132 143 123 95 70 30 3 61 86 113 104 107 107
134 130 123 122 113 106 92 98 73 75 77 94 74 79 66 60 66 60 67 48 53 65 69 73 78 93 114 125 118 86 62 36 3 48 86 71 88 111
128 134 144 123 142 121 100 97 93 81 64 70 63 58 38 43 52 53 51 59 64 65 62 78 70 62 74 81 90 102 85 74 15 -16 33 85 61 81
143 145 151 150 140 122 120 128 114 88 89 73 73 78 64 63 45 45 61 53 63 50 68 46 64 62 62 49 66 93 94 72 39 -2 -38 54 66 82
150 143 169 154 132 139 138 135 108 107 95 94 84 81 71 67 63 53 51 57 60 62 39 23 29 65 41 73 60 67 75 74 56 16 -10 -42 48 71
141 160 164 148 140 150 143 123 130 126 120 108 99 95 85 84 66 65 71 75 79 69 52 19 13 25 38 46 57 32 57 69 89 71 36 -6 6 53
136 161 163 188 189 176 149 155 133 141 128 118 104 98 92 87 83 77 76 84 78 69 60 40 44 35 36 49 43 54 73 91 95 102 75 40 -0 26
134 151 143 137 137 134 130 117 148 130 115 116 95 100 88 99 86 97 99 90 83 102 87 63 55 53 45 31 52 64 49 79 116 115 95 42 -18 -53
140 146 157 160 135 132 104 89 78 101 82 80 84 81 102 101 102 110 114 110 118 105 78 74 70 67 40 25 41 66 97 95 70 49 62 36 -18 -53
139 154 153 159 170 138 121 109 103 99 94 96 81 95 106 109 109 120 121 105 118 109 96 100 85 59 31 19 21 30 50 50 81 42 45 112 130 31
122 137 158 156 161 136 121 104 101 105 86 84 77 72 87 94 107 144 140 145 135 126 123 99 100 44 30 14 13 13 35 70 111 89 67 102 101 67
127 145 149 162 143 133 114 110 110 104 96 101 103 83 79 93 102 129 134 149 154 148 99 112 78 52 -15 25 16 26 28 80 118 131 102 78 96 -3
141 145 162 159 121 121 118 116 131 108 97 88 81 87 98 100 112 126 115 162 165 157 81 114 98 79 84 -25 43 28 25 64 62 94 116 100 114 56
150 155 152 148 116 117 103 140 111 94 98 103 96 101 117 122 120 123 111 128 135 129 86 92 139 106 82 34 14 27 17 44 38 93 101 99 121 114
141 190 167 129 97 74 124 105 92 108 106 114 105 106 122 121 102 100 102 100 94 83 100 86 116 97 110 59 23 24 38 47 34 46 61 78 75 83
151 126 129 108 92 98 83 88 98 108 114 94 106 107 118 115 112 109 118 108 108 91 60 68 78 84 107 77 18 13 12 46 58 107 119 115 109 91
168 117 101 112 113 106 108 103 100 104 107 105 111 113 115 116 115 104 114 104 95 86 73 64 60 65 84 3 11 22 21 23 22 15 54 84 79 85
128 115 124 116 110 109 112 107 103 100 102 109 99 97 111 119 110 106 101 94 87 80 73 63 58 68 54 33 -60 -19 32 15 40 11 2 47 64 76
98 115 119 121 117 106 105 109 103 106 112 91 96 107 115 113 100 101 92 87 82 74 65 56 66 32 -24 14 82 -10 26 140 81 84 47 63 106 117
90 115 121 122 113 115 113 112 114 113 108 105 115 114 111 110 106 99 88 80 77 65 60 50 41 -38 -51 1 107 245 64 96 91 114 79 55 94 196
125 117 123 123 119 116 124 122 114 108 112 108 109 105 107 112 104 95 85 66 62 63 34 29 -17 -4 -0 -7 19 141 186 100 40 61 85 90 143 173
126 127 125 123 125 129 126 122 109 108 116 117 113 110 108 111 101 88 79 78 65 54 -3 -6 -6 -16 -13 -15 31 119 213 241 160 87 78 122 177 142
133 126 120 129 128 129 123 117 118 118 120 111 108 104 110 104 89 85 79 77 53 -5 -44 -21 -7 1 9 19 38 101 192 215 161 190 102 57 87 164

GFSNE_con_3kmhel_195.txt.gz
Helicity
180 181 182 162 153 150 154 160 183 189 170 177 149 119 93 81 93 70 52 93 56 20 55 76 87 91 103 108 106 110 103 99 75 50 18 44 49 72
165 163 177 150 152 140 133 133 133 143 164 186 152 140 107 92 94 90 97 72 68 55 58 60 79 83 87 90 106 107 92 100 101 69 30 -0 41 51
182 166 164 159 134 126 117 120 138 134 140 128 132 119 98 89 93 87 70 56 57 67 60 76 53 67 80 81 96 88 110 93 77 77 37 10 1 45
152 164 168 119 127 124 138 155 148 138 129 122 116 121 103 96 85 56 53 57 66 42 82 37 29 24 51 80 80 91 80 84 73 50 48 11 3 15
171 163 147 122 114 149 164 143 142 139 123 123 117 117 114 113 110 90 71 78 62 54 51 49 49 43 38 41 53 78 84 63 51 59 39 44 15 2
211 225 179 137 158 159 143 151 161 158 150 138 135 138 131 120 129 108 114 103 104 77 61 50 51 65 66 53 59 32 47 96 100 75 47 30 31 13
202 211 158 216 230 217 187 220 201 186 180 165 159 157 142 145 148 137 123 119 95 67 72 85 107 73 57 78 57 68 97 63 73 81 87 66 30 13
203 219 137 135 135 149 168 174 167 179 180 183 171 157 136 150 144 145 125 106 102 87 138 110 101 65 62 75 67 66 87 91 90 81 66 52 41 18
225 153 129 149 135 143 123 112 108 102 120 140 139 130 132 149 146 121 115 118 114 111 116 113 93 72 82 75 96 90 68 59 67 72 68 72 55 43
156 150 151 146 172 174 161 136 130 127 122 127 117 100 111 130 119 120 116 105 115 121 133 125 97 97 89 107 80 41 27 48 52 71 79 72 65 48
106 136 153 153 206 170 154 137 134 127 120 80 83 77 68 72 85 118 121 141 135 128 158 140 116 118 110 84 74 23 25 81 57 62 79 78 78 64
120 159 161 164 185 156 149 153 138 137 170 122 108 89 38 56 59 75 111 124 137 133 114 130 133 134 92 84 77 41 46 33 41 66 87 88 86 7
131 129 164 158 160 150 150 136 157 147 113 97 73 92 104 112 129 138 158 151 148 154 113 134 143 140 147 108 92 67 48 37 44 58 81 78 70 47
135 161 264 176 157 130 110 144 123 106 89 109 122 124 126 129 143 163 158 142 144 137 116 111 159 147 141 112 69 55 54 45 35 59 55 62 85 73
152 277 292 183 121 91 62 96 84 103 133 141 138 119 128 131 124 123 120 121 128 116 122 107 123 125 150 145 70 46 19 53 44 1 31 58 62 45
212 187 163 134 93 91 109 72 82 129 137 116 109 110 113 117 131 128 129 127 128 118 99 94 90 101 128 117 93 28 47 50 53 36 18 15 19 7
137 140 112 87 97 103 113 127 119 113 123 111 114 118 115 118 125 127 131 129 125 116 106 92 85 88 95 82 91 88 53 37 20 3 -26 -16 -1 4
159 124 112 132 131 138 141 124 118 116 121 136 124 107 118 121 130 130 127 120 122 116 108 86 81 84 98 94 58 38 14 27 40 22 4 -5 46 30
136 136 152 161 148 125 115 115 115 128 155 116 120 115 123 125 125 120 118 120 118 116 101 86 87 95 68 20 37 35 -29 97 71 90 67 38 40 54
127 132 152 143 131 118 118 122 131 142 126 120 119 124 120 122 122 118 120 120 117 112 102 99 89 77 35 -41 -12 125 43 17 65 70 79 68 52 95
128 110 122 140 140 141 140 150 137 129 128 112 104 115 122 128 120 119 121 104 100 105 100 93 82 41 -29 -45 -27 52 104 60 29 52 89 96 126 126
126 133 139 148 149 152 149 143 128 117 117 120 128 132 126 121 120 120 117 111 103 105 104 102 71 53 -30 -48 -3 48 109 146 152 124 90 78 135 187
139 150 151 143 146 145 137 136 134 132 134 132 127 119 122 124 116 113 109 101 99 98 91 81 44 7 -34 -28 7 41 105 131 143 171 153 92 103 76